Location: Bear Valley Community Church - Hurst
(32.8460°N, 97.1828°W)
Time: 03:44:16
(UTC+00:00)

Envisat - Visible Passes

Search period start: 18 May 2022 00:00
Search period end: 28 May 2022 00:00
Orbit: 764 x 765 km, 98.2° (Epoch: 17 May)

Date Brightness Start Highest point End Pass type
(mag) Time Alt. Az. Time Alt. Az. Time Alt. Az.
18 May 5.6 09:54:40 10° ENE 09:57:43 16° E 10:00:44 10° SE visible
19 May 3.3 10:54:58 10° NNE 11:00:03 73° ESE 11:05:07 10° S visible
20 May 4.9 10:18:39 10° NE 10:23:04 29° E 10:27:26 10° SSE visible
21 May 5.8 09:44:08 10° ENE 09:45:52 12° E 09:47:37 10° ESE visible
22 May 3.8 10:43:20 10° NNE 10:48:19 55° E 10:53:16 10° S visible
23 May 5.3 10:07:19 10° NE 10:11:15 22° E 10:15:10 10° SE visible
25 May 4.3 10:31:45 10° NNE 10:36:32 41° E 10:41:18 10° S visible
26 May 5.6 09:56:10 10° NE 09:59:25 17° E 10:02:40 10° SE visible
27 May 3.2 10:56:39 10° NNE 11:01:45 78° ESE 11:06:48 10° S visible
